"Pseudo-MPEC" for A10R1Zt

Created 2022 Nov 26 23:22:03 UT using Find_Orb

Click here for an explanation of pseudo-MPECs

 
 Astrometry: 
     A10R1Zt* C2022 11 24.23624418 37 12.050+76 45 16.88   ~BO9M 19.14oVNEOCPT05
     A10R1Zt  C2022 11 24.24168418 37 12.876+76 45 15.80   ~BO9M 18.94oVNEOCPT05
     A10R1Zt  C2022 11 24.24530518 37 13.133+76 45 14.36   ~BO9M 18.96oVNEOCPT05
     A10R1Zt  C2022 11 24.26172318 37 14.722+76 45 13.28   ~BO9M 18.74oVNEOCPT05
     A10R1Zt KC2022 11 24DxT8[vwH,#IZ^1+dea]_bg1W/ID`Ri+Cnf@ncBAE4YWswv4Z[wGG204
     A10R1Zt HC2022 11 24T0pxAstrometrypHgLSe@@_h]'h$LV7]O4Zcno`;n%2mu54!hyub204
     A10R1Zt KC2022 11 24.94303 18 38 16.171+76 43 55.67   ~BONM 19.1 GVNEOCP970
     A10R1Zt KC2022 11 24.95400 18 38 17.275+76 43 54.95   ~BONM 19.5 GVNEOCP970
     A10R1Zt KC2022 11 25^c?+XFap)6*=Tyg:n)cNpVI_D%MDTj\rDV#?L_/WWc0DXX'A,wQ0C23
     A10R1Zt KC2022 11 25\uidsC.0;Rfs.B8['Gl^eV(C40duao_xjNK$Ng0n`6RS=yyU^aDHC23
     A10R1Zt KC2022 11 25.76664218 39 32.266+76 42 35.24   ~BPIq 18.9 GVNEOCPJ95
     A10R1Zt KC2022 11 25.77334818 39 32.957+76 42 34.42   ~BPIq 19.1 GVNEOCPJ95
     A10R1Zt :C2022 11 25%sdtX?,X7W6?xF38IjL@DKvb[[J%])xGXV=QOhMe-L1@d*CUVcS[950
     A10R1Zt KC2022 11 25`;u?AXIsZ'OwXEMFsl-yX'cbJrr3%SMApH`7[/1;j:lH:sH3f/2xC23
     A10R1Zt :C2022 11 256O``XN[e![J=M_8qRFsl@BY`+E^BOx\+00fufC1j`^OfvO](OWOo950
     A10R1Zt :C2022 11 25S./^.mZ]E=BUM.+mQ]k2XP;oXk-:Yp$r$K,;qI]QE1DQM\B'nWdJ950
     A10R1Zt 5C2022 11 26j/PQIdGM6KyB@Jl#PwIAi#vKLw\6!LEQXH;%PQ+)tK-@O]=Ry8,CU69
     A10R1Zt 5C2022 11 26p(HBY*2Zredacted;112i3'Hc3SFa%S'.kx:j6Fg,N5(.t:B_%T(U69
     A10R1Zt 5C2022 11 2696PVI^#0=0kK!i?FYeg@clickm#HUQ=xjv,r5vlE`I/W3T\5C!5WU69
     A10R1Zt KC2022 11 26@w4YyCdpuTm\(X]NXwQAUev7Ts9CPYE'GY'ECw@RDXM5oUmma4HLC23
     A10R1Zt KC2022 11 260_Z*R#4fHg[w2%NSWs/iD_UkRTBjmNFYcf(YS=VfB*sSW(CW'\gLC23
     A10R1Zt KC2022 11 26h],Bw5\%5B!x!U;1u8pnkMPh_1$L^l/jhiAX!GvCItyXi0-[ZU'.C23
     A10R1Zt KC2022 11 26+ImqNs/t\y=uu,vB(sEVrWy]d[=?b%%1rv9E+4(^Qb3ncP]H`/Y9215
     A10R1Zt KC2022 11 26lxt0q65vbLoa1]CJ4+]nS!q]^heresCGR]:*1$mxX/%Mq61:`yxnC23
     A10R1Zt KC2022 11 26Sy?k7l4^xKx)]V+_J]=3bD*forSUym/SkW`DvQ[hf@fkroN)Tg-8215
     A10R1Zt KC2022 11 26^@T)Ka8$UGW$=EIB5cZM2/VgPcY5)g.O0f*Xw*\o)703-dvg7/vm215
     A10R1Zt KC2022 11 26.73840 18 41 04.86 +76 41 10.6    ~BQIq 18.9 GXNEOCPC95
     A10R1Zt KC2022 11 26.74424 18 41 05.47 +76 41 09.4    ~BQIq 19.4 GXNEOCPC95
     A10R1Zt KC2022 11 26.75960418 41 06.91 +76 41 07.5    ~BQKb 18.8 GXNEOCP595
     A10R1Zt KC2022 11 26P'0/:v4%Di/V@nm5w*Saq:Ln(cWX1-_Ap!5FilLh55DU)7k[uxvmK83
     A10R1Zt KC2022 11 269H;explanationAfrSQY9rOnbu^TGLi]Jx@bi!7Bx*[yV@q/q*HDK83
     A10R1Zt KC2022 11 26.78966618 41 09.84 +76 41 05.2    ~BQKb 19.1 GXNEOCP595
     A10R1Zt KC2022 11 26.78995 18 41 09.86 +76 41 05.4    ~BQLb 19.1 GXNEOCPC95
     A10R1Zt KC2022 11 26Yq,/U:V[)m_'4GKi9mAC(vw^Hm4SpXfguvX,1;ypvgr!11n,.v(+K83
     A10R1Zt 2C2022 11 26ZyT(3axEMe=#au/rjbhf*`h;K6!Z3*?G)MOp4Mol2?S-NKQ6n=t.Z84
     A10R1Zt KC2022 11 26.80238 18 41 11.01 +76 41 04.4    ~BQLb 18.8 GXNEOCPC95
     A10R1Zt 2C2022 11 26_i4vkncOg02;:(OAQk4c0gJ8m!);r##Xm7T8+qgM[yhu[qq2=+O'Z84
     A10R1Zt KC2022 11 26.81407 18 41 12.31 +76 41 03.2    ~BQLb 18.4 GXNEOCPC95
     A10R1Zt KC2022 11 26.81972918 41 12.89 +76 41 02.2    ~BQKb 18.8 GXNEOCP595
     A10R1Zt 2C2022 11 26Ly@sT#4L8*M)8ei/,k_*@t!7,rB5I4@BhC1o##y+,lJuUW7FuA7QZ84

Station data:
(204) Schiaparelli Observatory  (N45.867930 E8.770800)  Italy.  Observer L.
   Buzzi. 0.60-m f/4.64 Newtonian + CCD0.84-m f/3.5 reflector + CCD.
(215) Buchloe  (N48.017290 E10.732800)  Germany.  Observer W. Hasubick.
   0.44-m f/4.6 reflector + CCD.
(595) Farra d'Isonzo  (N45.915731 E13.525780)  Italy.  Observers S. Aschi, E.
   Pettarin, G. Panterotto. Measurers S. Aschi, E. Pettarin. 0.40-m f/5.15
   reflector + CCD.
(950) La Palma  (N28.760220 W17.882400)  Canary Islands (Spain).  Observers
   O. Vaduvescu, R. Ashley, P. Massana, C. Celma, M. Monelli, M. Rodriguez,
   M. Rodriguez-Alarcon. Measurers C. Boldea, O. Vaduvescu. 2.5-m f/3.3
   reflector + CCD.
(970) Chelmsford  (N51.744713 E0.495400)  UK/England.  Observer N. James.
   0.28-m f/10 Schmidt-Cassegrain + CCD.
(C23) Olmen  (N51.140446 E5.154390)  Belgium.  Observer A. Diepvens. 0.20-m
   f/9 refractor + CCD.
(C95) SATINO Remote Observatory, Haute Provence  (N43.932040 E5.712390)
   France.  Observer J. Jahn. 0.60-m f/3.2 Newtonian reflector + CCD.
(J95) Great Shefford  (N51.474969 W1.447003)  UK/England.  Observer P.
   Birtwhistle. 0.41-m f/6.3 Schmidt-Cassegrain + CCD.
(K83) Beppe Forti Astronomical Observatory, Montelupo  (N43.755330
   E11.043170)  Italy.  Observers M. Tombelli, A. Mazzanti, E. Venticinque.
   Measurers G. Interrante, M. Iozzi, M. Tombelli, F. Bernardi. 0.40-m f/8
   Ritchey-Chrétien + CCD.
(T05) ATLAS-HKO, Haleakala  (N20.707571 W156.257010)  US/Hawaii.  Observers
   L. Denneau, A. Heinze, H. Weiland, J. Tonry, H. Flewelling, A.
   Fitzsimmons, D. Young, B. Stalder. Measurers L. Denneau, A. Heinze, J.
   Tonry. 0.5-m f/2.0 Schmidt + CCD.
(U69) iTelescope SRO Observatory, Auberry  (N37.070387 W119.413000)
   US/California.  Observer H. Sato. 0.61-m f/6.5 astrograph + CCD.
(Z84) Calar Alto-Schmidt  (N37.224046 W2.548210)  Spain.  Observer E. Schwab.
   Measurers E. Schwab, D. Koschny, M. Micheli. 0.8-m f/3 Schmidt + CCD.

Orbital elements:  A10R1Zt
   Perihelion 2023 Feb 7.52697 +/- 34.1 TT = 12:38:50 (JD 2459983.02697)
Epoch 2022 Nov 26.0 TT = JDT 2459909.5   Ju: 0.7806   Sa: 0.3107
M 359.74397228 +/- 0.17             (J2000 ecliptic)          AutoNEOCP
n   0.00348209 +/- 0.00398          Peri.  114.67669 +/- 9
a  43.1097850 +/- 33.3              Node   321.91073 +/- 1.5
e   0.9252660 +/- 0.0584            Incl.   63.43679 +/- 0.31
P 283.05                   H 13.3   G  0.15   U  9.0
q 3.22176659 +/- 0.0675    Q 82.9978034 +/- 66.4
From 40 observations 2022 Nov. 24-26; mean residual 0".37
Residuals in arcseconds: 
221124 T05  1.1-  .40+    221125 950  .13-  .38+    221126 595  .22-  .47-    
221124 T05  .07+  .03+    221125 950  .37+  .20+    221126 K83  .12-  1.0+    
221124 T05  .13-  .93-    221126 U69  .16-  .15-    221126 K83  .26-  .28-    
221124 T05  .38+  .17+    221126 U69  .23-  .18-    221126 595  .10-  .02+    
221124 204  .78+  .29+    221126 U69  .49-  .21-    221126 C95  .11-  .05-    
221124 204  .25+  .05+    221126 C23  .51+  .45+    221126 K83  .01+  .03-    
221124 970  .16-  .25-    221126 C23  .09-  .17+    221126 Z84  .36+  .06+    
221124 970  .13+  .30+    221126 C23  .25-  .11-    221126 C95  .28-  .10+    
221125 C23  1.3+  .72+    221126 215  .29+  .05+    221126 Z84  .25+  .08-    
221125 C23  .41+  .03-    221126 C23  .52+  .39-    221126 C95  .31+  .01-    
221125 J95  .17-  .02+    221126 215  .16+  .06+    221126 595  .35+  .19-    
221125 J95  .08+  .10-    221126 215  .34-  .06+    221126 Z84  .08+  .15-    
221125 950  .36-  .19-    221126 C95  .37-  .38+    
221125 C23  .76-  .33-    221126 C95  .18-  .28-    

Ephemerides (geocentric):
Date (UTC) HH   RA             Dec           delta  r     elong  mag " sig PA
---- --------  ------------   ------------  ------ ------ -----  --- --------
2022 11 26 23  18 41 26.903   +76 40 52.08  2.9667 3.2903 100.3 19.2 .108  30
2022 11 27 00  18 41 30.979   +76 40 48.85  2.9666 3.2902 100.3 19.2 .119  28
2022 11 27 01  18 41 35.060   +76 40 45.65  2.9664 3.2901 100.3 19.2 .131  27
2022 11 27 02  18 41 39.147   +76 40 42.46  2.9663 3.2900 100.3 19.2 .143  26
2022 11 27 03  18 41 43.240   +76 40 39.30  2.9662 3.2899 100.3 19.2 .156  25
2022 11 27 04  18 41 47.338   +76 40 36.17  2.9660 3.2899 100.4 19.2 .169  25
2022 11 27 05  18 41 51.442   +76 40 33.06  2.9659 3.2898 100.4 19.2 .182  24
2022 11 27 06  18 41 55.552   +76 40 29.98  2.9658 3.2897 100.4 19.2 .196  23
2022 11 27 07  18 41 59.668   +76 40 26.91  2.9657 3.2896 100.4 19.2 .210  23
2022 11 27 08  18 42 03.789   +76 40 23.88  2.9655 3.2896 100.4 19.2 .225  22
2022 11 27 09  18 42 07.916   +76 40 20.87  2.9654 3.2895 100.4 19.2 .240  22
2022 11 27 10  18 42 12.049   +76 40 17.88  2.9653 3.2894 100.4 19.2 .255  22
2022 11 27 11  18 42 16.188   +76 40 14.91  2.9651 3.2893 100.4 19.2 .271  21
2022 11 27 12  18 42 20.332   +76 40 11.98  2.9650 3.2893 100.4 19.2 .287  21
2022 11 27 13  18 42 24.482   +76 40 09.06  2.9649 3.2892 100.4 19.2 .304  21
2022 11 27 14  18 42 28.638   +76 40 06.17  2.9648 3.2891 100.4 19.2 .321  21
2022 11 27 15  18 42 32.799   +76 40 03.30  2.9646 3.2890 100.4 19.2 .338  20
2022 11 27 16  18 42 36.966   +76 40 00.46  2.9645 3.2889 100.4 19.2 .356  20
2022 11 27 17  18 42 41.139   +76 39 57.65  2.9644 3.2889 100.4 19.2 .374  20
2022 11 27 18  18 42 45.318   +76 39 54.85  2.9642 3.2888 100.4 19.2 .392  20
2022 11 27 19  18 42 49.502   +76 39 52.08  2.9641 3.2887 100.4 19.2 .411  20
2022 11 27 20  18 42 53.692   +76 39 49.34  2.9640 3.2886 100.4 19.2 .430  19
2022 11 27 21  18 42 57.888   +76 39 46.62  2.9639 3.2886 100.4 19.2 .450  19
2022 11 27 22  18 43 02.090   +76 39 43.93  2.9637 3.2885 100.4 19.2 .470  19
2022 11 27 23  18 43 06.297   +76 39 41.26  2.9636 3.2884 100.4 19.2 .490  19
2022 11 28 00  18 43 10.510   +76 39 38.61  2.9635 3.2883 100.4 19.2 .510  19
2022 11 28 01  18 43 14.729   +76 39 35.99  2.9633 3.2883 100.4 19.2 .531  19
2022 11 28 02  18 43 18.953   +76 39 33.39  2.9632 3.2882 100.4 19.2 .553  19
2022 11 28 03  18 43 23.183   +76 39 30.82  2.9631 3.2881 100.4 19.2 .575  18
2022 11 28 04  18 43 27.419   +76 39 28.27  2.9630 3.2880 100.4 19.2 .597  18
2022 11 28 05  18 43 31.661   +76 39 25.74  2.9628 3.2880 100.4 19.2 .619  18
2022 11 28 06  18 43 35.908   +76 39 23.24  2.9627 3.2879 100.4 19.2 .642  18
2022 11 28 07  18 43 40.161   +76 39 20.77  2.9626 3.2878 100.4 19.2 .665  18
2022 11 28 08  18 43 44.420   +76 39 18.32  2.9624 3.2877 100.4 19.2 .689  18
2022 11 28 09  18 43 48.685   +76 39 15.89  2.9623 3.2876 100.4 19.2 .713  18
2022 11 28 10  18 43 52.955   +76 39 13.49  2.9622 3.2876 100.4 19.2 .737  18
2022 11 28 11  18 43 57.231   +76 39 11.11  2.9621 3.2875 100.5 19.2 .762  18
2022 11 28 12  18 44 01.512   +76 39 08.75  2.9619 3.2874 100.5 19.2 .787  18
2022 11 28 13  18 44 05.800   +76 39 06.42  2.9618 3.2873 100.5 19.2 .812  18
2022 11 28 14  18 44 10.093   +76 39 04.12  2.9617 3.2873 100.5 19.2 .838  18
2022 11 28 15  18 44 14.392   +76 39 01.84  2.9616 3.2872 100.5 19.2 .864  18
2022 11 28 16  18 44 18.696   +76 38 59.58  2.9614 3.2871 100.5 19.2 .891  17
2022 11 28 17  18 44 23.006   +76 38 57.35  2.9613 3.2870 100.5 19.2 .918  17
2022 11 28 18  18 44 27.322   +76 38 55.14  2.9612 3.2870 100.5 19.2 .945  17
2022 11 28 19  18 44 31.644   +76 38 52.96  2.9610 3.2869 100.5 19.2 .973  17
2022 11 28 20  18 44 35.971   +76 38 50.80  2.9609 3.2868 100.5 19.2 1.00  17
2022 11 28 21  18 44 40.304   +76 38 48.67  2.9608 3.2867 100.5 19.2 1.03  17
2022 11 28 22  18 44 44.643   +76 38 46.56  2.9607 3.2867 100.5 19.2 1.06  17